Location: Aressy
(43.2833°N, 0.3167°W)
Time: 20:29:12
(UTC+00:00)

USA 234 - Pass Details

Date: 28 January 2021
Orbit: 1100 x 1107 km, 123.0° (Epoch: 01 March)

Event Time Altitude Azimuth Distance (km) Brightness Sun altitude
Exits shadow 19:53:12 32° 13° (NNE) 1,802 4.2 -30.1°
Drops below altitude 10° 19:58:39 10° 316° (NW) 2,966 6.0 -31.1°
Sets 20:01:24 0° 307° (NW) 3,926 6.9 -31.6°
